Location: Biberach+an+der+Riss
(48.0937°N, 9.7888°E)
Time: 23:52:21
(UTC+01:00)

ISS - Pass Details

Date: 06 January 2018
Orbit: 402 x 407 km, 51.6° (Epoch: 20 January)

Event Time Altitude Azimuth Distance (km) Brightness Sun altitude
Exits shadow 05:13:55 15° 63° (ENE) 1,212 -0.8 -28.5°
Drops below altitude 10° 05:14:34 10° 66° (ENE) 1,470 -0.2 -28.4°
Sets 05:16:41 0° 70° (ENE) 2,333 1.0 -28.0°
